Погода в Исилькуле

Погода в Исилькуле : погода сейчас, прогноз погоды и архив. Всё, что Вы хотите узнать о погоде в Исилькуле!

Хотите узнать прогноз погоды в Исилькуле? Тогда Вам сюда: Погода в Исилькуле

Поиск расширенной информации на нашем сайте:

Полезная информация: Деньги в долг срочно дам деньги в долг.

Другие новости

Новости СМИ2

Главная страница сайта

Новости сайта

03.07.2017

Напоминаем, что на нашем специализированном сайте Метеоцентр.Азия вы можете получить высокодетализированные автоматические прогнозы погоды по пунктам России, СНГ и мира в авиационном формате (включающие направление и скорость ветра, видимость, явления погоды, количество и форму облачности, нижнюю и верхнюю границу облачности).

Рекомендуем: Образец договор купли продажи сруба бани.

Погода в Исилькуле - сегодня

Время (UTC), дата Ветер
(°,м/с) 
Видим.   Явления Облачность Т
(°С)
Тd
(°С)
f(%) Тe
(°С)
Pmin
(гПа)
dP
(гПа)
Po
(мм)
O2
(г/м3)
Тmin Tmax R s Состояние
почвы
15 18.09.17 290 (З) 2{11}  10 км    6/0 средняя 
[Ac trans]
+11.5 +6.4 71 +12  1011.9  1.6  748  288    +17.5       
18 18.09.17 310 (СЗ) 10 км    8/0 средняя 
[Ac trans]
+10.6 +7.2 79 +10  1013.4  1.3  749  289           
21 18.09.17 310 (СЗ) 10 км    ясно 
+7.9 +6.3 90 +7  1014.6  749  292           
00 19.09.17 290 (З) 10 км    3/0 средняя, верхняя 
[Ac trans|Ci fib]
+5.7 +4.4 91 +5  1016.5  1.8  751  296           
03 19.09.17 310 (СЗ) 20000 м    1/0 средняя 
[As op]
+8.2 +4.9 80 +7  1018.5  752  294  +4.3        сухая 
06 19.09.17 310 (СЗ) 6{10}  20000 м    10/5 600 м кучево-дожд., средняя 
[Cb calv|As op]
+11.2 +4.6 64 +10  1019.8  1.5  754  291           
09 19.09.17 310 (СЗ) 6{11}  20000 м    10/10 600 м 
[Sc]
+11.6 +4.1 60 +10  1020.6  0.8  754  291           
12 19.09.17 320 (СЗ) 20000 м    10/10 600 м 
[Sc]
+10.7 +4.1 64 +10  1021.7  755  292           
15 19.09.17 250 (З) 20000 м    4/4 1000 м 
[Sc]
+5.5 +3.2 85 +6  1022.8  0.9  755  298    +11.7       
18 19.09.17 220 (ЮЗ) 10 км    10/0 средняя 
[Ac As]
+7.5 +4.5 81 +8  1022.9  0.2  756  296           
21 19.09.17 200 (Ю) 10 км    10/4 600 м средняя 
[Sc|Ac As]
+8.5 +4.9 78 +9  1021.6  -1.2  755  294           
00 20.09.17 160 (Ю) 10 км    9/6 600 м средняя 
[Sc|Ac trans]
+8.6 +4.6 76 +8  1018.8  -2.8  753  293           
03 20.09.17 210 (ЮЗ) 2000 м  слаб. ливневой дождь  10/10 600 м кучево-дожд. 
[Cb calv]
+9.2 +5.8 79 +10  1017.5  -1.2  752  292  +4.6       
06 20.09.17 270 (З) 20000 м  {ливн. осадки}  9/4 600 м кучево-дожд., средняя 
[Cb calv|Ac As]
+13 +9.3 78 +14  1014.9  -2.3  750  287           
09 20.09.17 140 (ЮВ) 20000 м    10/1 1000 м кучево-дожд., средняя 
[Cb calv|As op]
+16.8 +12 73 +22  1012.2  -2.4  748  282           
12 20.09.17 330 (СЗ) 20000 м    9/6 600 м кучево-дожд., средняя 
[Cb calv|Ac trans]
+22.2 +11.5 51 +25  1010.6  -1.3  747  276           
15 20.09.17 250 (З) 10 км  {ливн. осадки}  4/0 средняя 
[Ac trans]
+12.9 +12 94 +18  1011.5  0.4  747  285    +23.6     
18 20.09.17 290 (З) 10 км  {ливн. осадки}  ясно 
+12 +9.8 86 +13  1012  0.4  748  287           
21 20.09.17 310 (СЗ) 10 км    ясно 
+10.3 +8.5 89 +10  1012.4  0.3  748  289           
00 21.09.17 300 (СЗ) 10 км    5/0 средняя 
[Ac trans]
+8.1 +6.9 92 +8  1012.5  748  292           
03 21.09.17 330 (СЗ) 20000 м    6/0 средняя, верхняя 
[Ac trans|Ci fib]
+11.8 +9.4 85 +12  1013.2  0.9  749  287  +7.5         
06 21.09.17 330 (СЗ) 20000 м    10/8 600 м кучево-дожд., средняя 
[Cb calv|Ac trans]
+12.8 +9.3 79 +12  1013.6  0.4  749  287           
09 21.09.17 360 (С) 20000 м  в посл. час ливневой дождь  10/10 600 м кучево-дожд. 
[Cb calv]
+11.7 +9.2 85 +11  1014.3  0.7  749  288           
12 21.09.17 020 (С) 5{10}  20000 м  {ливн. осадки}  10/10 600 м кучево-дожд. 
[Cb calv]
+9.3 +6.5 83 +8  1016.6  2.1  751  292           
15 21.09.17 360 (С) 3{10}  10 км  {ливн. осадки}  8/8 600 м кучево-дожд. 
[Cb calv]
+6.4 +5 91 +5  1018.8  2.1  753  295    +14.1  0.3     
Время (UTC), дата Ветер
(°,м/с) 
Видим.   Явления Облачность Т
(°С)
Тd
(°С)
f(%) Тe
(°С)
Pmin
(гПа)
dP
(гПа)
Po
(мм)
O2
(г/м3)
Тmin Tmax R s Состояние
почвы

Для получения пояснительной информации подведите курсор к названию столбца.

ПОГОДА в Исилькуле - архив

Всё, что Вы хотите узнать о погоде в Исилькуле - удобно и подробно!

Выберите нужную дату (начиная с 1 января 2015* года) и нажмите кнопку "Найти".
Будут отображены архивные сводки погоды по пункту Исилькуль, начиная с указанной даты.


Отображать данные в формате CSV (для использования в таблицах Excel)


Внимание! Наш архив погоды предназначен исключительно для личного некоммерческого использования в познавательных целях. Если Вам необходимы официальные справки о состоянии погоды (для производственных, юридических, коммерческих и т.п. целей), обращайтесь в органы Росгидромета.

*Примечание: данная дата относится к архиву по метеостанциям СССР (Россия, СНГ, Балтия).
Архив по метеостанциям Зарубежной Европы и Азии (кроме Китая) хранится 10 дней, по другим регионам земного шара (Китай, Африка, Америка, Австралия, Океания) - 1 день.

Исилькуль - район местоположения метеостанции


Название, широта, долгота, высота метеостанции:
Исилькуль 54.9°ш. 71.2°д. 125 м над ур. моря [Российская Федерация]

Дополнительная информация

В oтличие oт бoльшинства пoгoдных сайтoв мы публикуем пoдрoбную метеoинфoрмацию в детальнoм прoфессиoнальнoм фoрмате.

Характеристики температуры и влажнoсти вoздуха измеряются на высoте 2 м в тени вдали oт зданий и деревьев.
Скoрoсть ветра измеряется на высoте 10 м (на урoвне рoста челoвека скoрoсть ветра ниже в 1.5-2 раза). Если метеoстанция нахoдится в гoрoде или в лесу, тo скoрoсть ветра занижена на 2-4 м/с пo сравнению с oткрытым местoм. Скoрoсть ветра над акватoриями крупных рек и oзёр, а также на вершинах хoлмoв на 2-5 м/с выше, чем в oбычных услoвиях.
Атмoсфернoе давление в разных тoчках местнoсти мoжет значительнo oтличаться oт давления на метеoстанции, в зависимoсти oт услoвий рельефа (при пoдъёме на 10 м давление пoнижается примернo на 1 мм рт.ст.).